Location: Newark
(33.9035°S, 18.4112°E)
Time: 03:00:25
(UTC+00:00)

STARLINK-1096 - Pass Details

Date: 26 January 2020
Orbit: 344 x 355 km, 53.0° (Epoch: 21 February)

Event Time Altitude Azimuth Distance (km) Brightness Sun altitude
Exits shadow 01:44:32 14° 191° (SSW) 1,131 5.6 -24.1°
Drops below altitude 10° 01:45:27 10° 175° (S) 1,329 6.2 -24.0°
Sets 01:48:01 0° 151° (SSE) 2,177 8.0 -23.6°
